THY4277 LOWI-BIKF

Flight info

Callsign THY4277
Flight time 3h 55m
Altitude 34000
Route KPT L608 TEDGO DCT SUNEG L608 ULNOK DCT ADENU DCT LIRSU L608 DENUT L610 GILDA M14 STOAT DCT INREV DCT TLA DCT BARKU DCT RATSU/M076F340 DCT ALDAN DCT ASRUN ASRUN4N
Aircraft B738/M-SDE2E3FGHIRWXY/LB1

Departure

Time 2026-05-07 06:32
Airport Innsbruck Airport (LOWI)

Arrival

Time 2026-05-07 10:27
Airport Keflavik International Airport (BIKF)
Time Latitude Longitude Altitude Speed Heading
2026-05-07 05:52 47.25834 11.35109 1898 ft 0 kts 170°
2026-05-07 06:24 47.25844 11.35106 1885 ft 2 kts 169°
2026-05-07 06:24 47.25860 11.35101 1893 ft 2 kts 164°
2026-05-07 06:24 47.25875 11.35092 1887 ft 2 kts 134°
2026-05-07 06:25 47.25879 11.35074 1887 ft 1 kts 80°
2026-05-07 06:25 47.25879 11.35073 1885 ft 0 kts 80°
2026-05-07 06:28 47.25879 11.35075 1887 ft 1 kts 80°
2026-05-07 06:28 47.25882 11.35103 1895 ft 5 kts 81°
2026-05-07 06:28 47.25890 11.35173 1898 ft 8 kts 81°
2026-05-07 06:28 47.25899 11.35253 1898 ft 7 kts 81°
2026-05-07 06:29 47.25932 11.35286 1898 ft 6 kts 359°
2026-05-07 06:29 47.25976 11.35277 1893 ft 6 kts 352°
2026-05-07 06:29 47.26020 11.35268 1890 ft 6 kts 352°
2026-05-07 06:29 47.26062 11.35259 1890 ft 6 kts 352°
2026-05-07 06:30 47.26102 11.35267 1897 ft 6 kts 37°
2026-05-07 06:30 47.26119 11.35322 1902 ft 6 kts 74°
2026-05-07 06:30 47.26128 11.35392 1895 ft 8 kts 81°
2026-05-07 06:30 47.26138 11.35491 1894 ft 11 kts 81°
2026-05-07 06:31 47.26133 11.35598 1896 ft 11 kts 125°
2026-05-07 06:31 47.26117 11.35669 1899 ft 7 kts 69°
2026-05-07 06:31 47.26140 11.35667 1896 ft 4 kts 310°
2026-05-07 06:31 47.26147 11.35628 1898 ft 5 kts 276°
2026-05-07 06:32 47.26136 11.35469 1892 ft 45 kts 261°
2026-05-07 06:32 47.26044 11.34621 1901 ft 121 kts 261°
2026-05-07 06:32 47.25884 11.33122 2075 ft 167 kts 262°
2026-05-07 06:32 47.25799 11.31367 2920 ft 179 kts 274°
2026-05-07 06:33 47.25932 11.29519 3814 ft 184 kts 277°
2026-05-07 06:33 47.26095 11.27636 4601 ft 185 kts 277°
2026-05-07 06:33 47.26055 11.25801 5231 ft 179 kts 249°
2026-05-07 06:33 47.25222 11.24368 5476 ft 198 kts 205°
2026-05-07 06:34 47.23826 11.24197 5694 ft 213 kts 162°
2026-05-07 06:34 47.22668 11.25545 5977 ft 227 kts 120°
2026-05-07 06:34 47.22356 11.27932 5963 ft 256 kts 79°
2026-05-07 06:34 47.23081 11.30288 6669 ft 253 kts 59°
2026-05-07 06:35 47.23863 11.32513 7679 ft 241 kts 66°
2026-05-07 06:35 47.24529 11.34855 8049 ft 260 kts 69°
2026-05-07 06:35 47.25182 11.37445 8395 ft 277 kts 71°
2026-05-07 06:35 47.25814 11.40166 8971 ft 285 kts 72°
2026-05-07 06:36 47.26432 11.42940 9696 ft 286 kts 73°
2026-05-07 06:36 47.27046 11.45743 10329 ft 290 kts 73°
2026-05-07 06:36 47.27670 11.48612 10805 ft 302 kts 73°
2026-05-07 06:36 47.28322 11.51626 10998 ft 323 kts 73°
2026-05-07 06:37 47.29025 11.54874 11184 ft 342 kts 73°
2026-05-07 06:37 47.29757 11.58264 11716 ft 352 kts 73°
2026-05-07 06:37 47.30506 11.61736 12352 ft 358 kts 73°
2026-05-07 06:37 47.31306 11.65225 13073 ft 362 kts 67°
2026-05-07 06:38 47.32506 11.68508 13742 ft 367 kts 58°
2026-05-07 06:38 47.33897 11.71694 14344 ft 372 kts 57°
2026-05-07 06:38 47.35293 11.74924 15008 ft 375 kts 58°
2026-05-07 06:38 47.36699 11.78189 15630 ft 380 kts 53°
2026-05-07 06:39 47.38588 11.80851 16209 ft 384 kts 31°
2026-05-07 06:39 47.41031 11.82372 16845 ft 383 kts
2026-05-07 06:39 47.43679 11.82533 17497 ft 381 kts 348°
2026-05-07 06:39 47.46177 11.81335 18137 ft 378 kts 328°
2026-05-07 06:40 47.48250 11.78983 18704 ft 376 kts 309°
2026-05-07 06:40 47.49722 11.75817 19228 ft 375 kts 296°
2026-05-07 06:40 47.50942 11.72388 19767 ft 378 kts 294°
2026-05-07 06:40 47.52132 11.68896 20296 ft 382 kts 293°
2026-05-07 06:41 47.53332 11.65375 20851 ft 385 kts 294°
2026-05-07 06:41 47.54554 11.61837 21383 ft 387 kts 294°
2026-05-07 06:41 47.55778 11.58325 21878 ft 391 kts 294°
2026-05-07 06:41 47.57037 11.54736 22386 ft 394 kts 294°
2026-05-07 06:42 47.58311 11.51115 22923 ft 398 kts 293°
2026-05-07 06:42 47.59593 11.47468 23427 ft 401 kts 293°
2026-05-07 06:42 47.60887 11.43794 23870 ft 404 kts 294°
2026-05-07 06:42 47.62448 11.40282 24285 ft 412 kts 304°
2026-05-07 06:43 47.64410 11.37132 24688 ft 421 kts 314°
2026-05-07 06:43 47.66660 11.34318 25087 ft 426 kts 316°
2026-05-07 06:43 47.68976 11.31542 25457 ft 429 kts 316°
2026-05-07 06:43 47.71316 11.28765 25825 ft 432 kts 316°
2026-05-07 06:44 47.73638 11.25999 26194 ft 435 kts 316°
2026-05-07 06:44 47.75998 11.23167 26581 ft 437 kts 316°
2026-05-07 06:44 47.78363 11.20307 26964 ft 439 kts 316°
2026-05-07 06:44 47.80737 11.17419 27339 ft 442 kts 315°
2026-05-07 06:45 47.83115 11.14512 27707 ft 444 kts 315°
2026-05-07 06:45 47.85504 11.11583 28061 ft 446 kts 315°
2026-05-07 06:45 47.87904 11.08636 28401 ft 449 kts 315°
2026-05-07 06:45 47.90320 11.05665 28738 ft 451 kts 315°
2026-05-07 06:46 47.92711 11.02722 29073 ft 453 kts 315°
2026-05-07 06:46 47.95145 10.99722 29392 ft 455 kts 315°
2026-05-07 06:46 47.97587 10.96709 29702 ft 457 kts 315°
2026-05-07 06:46 48.00037 10.93684 30067 ft 458 kts 316°
2026-05-07 06:47 48.02489 10.90653 30454 ft 456 kts 316°
2026-05-07 06:47 48.04927 10.87638 30863 ft 454 kts 316°
2026-05-07 06:47 48.07357 10.84627 31221 ft 453 kts 316°
2026-05-07 06:47 48.09780 10.81619 31523 ft 453 kts 316°
2026-05-07 06:48 48.12179 10.78636 31836 ft 453 kts 316°
2026-05-07 06:48 48.14598 10.75625 32168 ft 453 kts 316°
2026-05-07 06:48 48.17019 10.72608 32494 ft 452 kts 316°
2026-05-07 06:48 48.18653 10.70569 32708 ft 452 kts 316°
2026-05-07 06:49 48.19495 10.69518 32817 ft 452 kts 316°
2026-05-07 06:49 48.21910 10.66500 33120 ft 452 kts 316°
2026-05-07 06:49 48.24321 10.63484 33427 ft 451 kts 316°
2026-05-07 06:49 48.26732 10.60463 33713 ft 451 kts 316°
2026-05-07 06:50 48.35968 10.48859 34660 ft 450 kts 317°
2026-05-07 06:51 48.38369 10.45833 34891 ft 450 kts 317°
2026-05-07 06:51 48.40767 10.42807 35112 ft 450 kts 317°
2026-05-07 06:51 48.43170 10.39770 35337 ft 450 kts 317°
2026-05-07 06:51 48.45533 10.36780 35547 ft 450 kts 317°
2026-05-07 06:52 48.47927 10.33748 35745 ft 450 kts 317°
2026-05-07 06:52 48.50325 10.30706 35955 ft 450 kts 317°
2026-05-07 06:52 48.55148 10.24574 35978 ft 455 kts 317°
2026-05-07 06:53 48.59971 10.18431 35965 ft 451 kts 317°
2026-05-07 06:53 48.64738 10.12341 35974 ft 447 kts 317°
2026-05-07 06:54 48.69443 10.06316 35971 ft 446 kts 317°
2026-05-07 06:54 48.74176 10.00275 35972 ft 445 kts 317°
2026-05-07 06:55 48.78908 9.94240 35969 ft 445 kts 317°
2026-05-07 06:55 48.83637 9.88188 35968 ft 445 kts 317°
2026-05-07 06:56 48.88334 9.82157 35981 ft 446 kts 317°
2026-05-07 06:56 48.93082 9.76045 35967 ft 448 kts 317°
2026-05-07 06:57 48.97843 9.69898 35965 ft 449 kts 317°
2026-05-07 06:57 49.02603 9.63739 35969 ft 449 kts 317°
2026-05-07 06:58 49.07337 9.57598 35967 ft 450 kts 317°
2026-05-07 06:58 49.12098 9.51403 35961 ft 450 kts 317°
2026-05-07 06:59 49.16856 9.45198 35978 ft 450 kts 317°
2026-05-07 06:59 49.21612 9.38979 35962 ft 450 kts 317°
2026-05-07 07:00 49.26362 9.32752 35964 ft 449 kts 317°
2026-05-07 07:00 49.31065 9.26570 35962 ft 448 kts 317°
2026-05-07 07:01 49.35788 9.20345 35961 ft 447 kts 317°
2026-05-07 07:01 49.40498 9.14121 35974 ft 446 kts 317°
2026-05-07 07:02 49.45193 9.07899 35970 ft 446 kts 317°
2026-05-07 07:02 49.49856 9.01705 35965 ft 445 kts 317°
2026-05-07 07:03 49.54531 8.95479 35979 ft 444 kts 317°
2026-05-07 07:03 49.59201 8.89243 35984 ft 444 kts 317°
2026-05-07 07:04 49.63871 8.82990 35981 ft 444 kts 317°
2026-05-07 07:04 49.68500 8.76775 35982 ft 444 kts 317°
2026-05-07 07:05 49.73163 8.70499 35979 ft 444 kts 317°
2026-05-07 07:05 49.77819 8.64215 35987 ft 444 kts 317°
2026-05-07 07:06 49.82473 8.57917 35987 ft 444 kts 317°
2026-05-07 07:06 49.87085 8.51659 35990 ft 444 kts 317°
2026-05-07 07:07 49.91729 8.45341 35994 ft 444 kts 317°
2026-05-07 07:07 49.96366 8.39016 35991 ft 444 kts 317°
2026-05-07 07:08 50.01001 8.32677 35993 ft 444 kts 317°
2026-05-07 07:08 50.05602 8.26367 35994 ft 444 kts 317°
2026-05-07 07:09 50.10231 8.20002 35990 ft 444 kts 317°
2026-05-07 07:09 50.14858 8.13648 35989 ft 444 kts 317°
2026-05-07 07:10 50.19568 8.07423 35989 ft 444 kts 319°
2026-05-07 07:10 50.24272 8.01265 35989 ft 444 kts 319°
2026-05-07 07:11 50.28982 7.95059 35990 ft 443 kts 318°
2026-05-07 07:11 50.33685 7.88825 35991 ft 443 kts 318°
2026-05-07 07:12 50.38379 7.82577 35984 ft 442 kts 318°
2026-05-07 07:12 50.43027 7.76373 35990 ft 441 kts 318°
2026-05-07 07:13 50.47694 7.70126 35988 ft 441 kts 318°
2026-05-07 07:13 50.52354 7.63875 35992 ft 440 kts 318°
2026-05-07 07:14 50.57003 7.57620 36001 ft 440 kts 318°
2026-05-07 07:14 50.61517 7.51532 36002 ft 440 kts 318°
2026-05-07 07:15 50.66124 7.45303 36008 ft 439 kts 318°
2026-05-07 07:15 50.70756 7.39019 36011 ft 439 kts 318°
2026-05-07 07:16 50.75384 7.32725 36018 ft 439 kts 318°
2026-05-07 07:16 50.80004 7.26425 36022 ft 439 kts 318°
2026-05-07 07:17 50.84600 7.20143 36021 ft 439 kts 318°
2026-05-07 07:17 50.89218 7.13812 36020 ft 439 kts 318°
2026-05-07 07:18 50.93831 7.07470 36023 ft 439 kts 318°
2026-05-07 07:18 50.98438 7.01121 36018 ft 439 kts 318°
2026-05-07 07:19 51.03042 6.94756 36019 ft 439 kts 318°
2026-05-07 07:19 51.07610 6.88424 36018 ft 438 kts 318°
2026-05-07 07:20 51.12201 6.82044 36019 ft 438 kts 318°
2026-05-07 07:20 51.16785 6.75656 36023 ft 438 kts 318°
2026-05-07 07:21 51.21362 6.69260 36021 ft 437 kts 318°
2026-05-07 07:21 51.25904 6.62896 36024 ft 437 kts 317°
2026-05-07 07:22 51.30470 6.56479 36024 ft 437 kts 317°
2026-05-07 07:22 51.35027 6.50057 36020 ft 436 kts 317°
2026-05-07 07:23 51.39577 6.43628 36021 ft 436 kts 317°
2026-05-07 07:23 51.44087 6.37240 36036 ft 436 kts 318°
2026-05-07 07:24 51.49080 6.31771 36052 ft 436 kts 330°
2026-05-07 07:24 51.54456 6.27236 36048 ft 436 kts 332°
2026-05-07 07:25 51.62490 6.20484 36049 ft 436 kts 331°
2026-05-07 07:26 51.67845 6.15898 36048 ft 437 kts 331°
2026-05-07 07:26 51.73207 6.11270 36048 ft 437 kts 330°
2026-05-07 07:27 51.78572 6.06621 36045 ft 438 kts 330°
2026-05-07 07:27 51.83939 6.01957 36041 ft 438 kts 330°
2026-05-07 07:28 51.89278 5.97307 36050 ft 439 kts 330°
2026-05-07 07:28 51.94653 5.92614 36048 ft 439 kts 330°
2026-05-07 07:29 52.00030 5.87906 36056 ft 439 kts 330°
2026-05-07 07:29 52.05409 5.83182 36044 ft 439 kts 330°
2026-05-07 07:30 52.10739 5.78489 36044 ft 439 kts 330°
2026-05-07 07:30 52.16111 5.73746 36047 ft 438 kts 330°
2026-05-07 07:31 52.21466 5.69005 36049 ft 438 kts 330°
2026-05-07 07:31 52.26816 5.64255 36045 ft 437 kts 330°
2026-05-07 07:32 52.32122 5.59531 36049 ft 437 kts 330°
2026-05-07 07:32 52.37448 5.54776 36053 ft 436 kts 330°
2026-05-07 07:33 52.42776 5.50006 36045 ft 436 kts 330°
2026-05-07 07:33 52.48099 5.45228 36049 ft 436 kts 330°
2026-05-07 07:34 52.53417 5.40441 36043 ft 436 kts 330°
2026-05-07 07:34 52.58699 5.35673 36051 ft 436 kts 330°
2026-05-07 07:35 52.64006 5.30869 36054 ft 435 kts 330°
2026-05-07 07:35 52.69309 5.26055 36057 ft 435 kts 330°
2026-05-07 07:36 52.74613 5.21226 36056 ft 435 kts 330°
2026-05-07 07:36 52.79872 5.16426 36062 ft 435 kts 330°
2026-05-07 07:37 52.85168 5.11578 36067 ft 434 kts 330°
2026-05-07 07:37 52.90451 5.06728 36067 ft 434 kts 330°
2026-05-07 07:38 52.95725 5.01873 36072 ft 434 kts 330°
2026-05-07 07:38 53.00999 4.97004 36072 ft 433 kts 330°
2026-05-07 07:39 53.06226 4.92165 36071 ft 433 kts 330°
2026-05-07 07:39 53.11481 4.87286 36072 ft 433 kts 330°
2026-05-07 07:40 53.16742 4.82388 36063 ft 433 kts 330°
2026-05-07 07:40 53.21992 4.77486 36066 ft 432 kts 330°
2026-05-07 07:41 53.27199 4.72611 36068 ft 432 kts 330°
2026-05-07 07:41 53.32430 4.67699 36066 ft 431 kts 330°
2026-05-07 07:42 53.37658 4.62777 36074 ft 431 kts 330°
2026-05-07 07:42 53.42878 4.57848 36074 ft 430 kts 330°
2026-05-07 07:43 53.48084 4.52918 36075 ft 430 kts 330°
2026-05-07 07:43 53.53250 4.48012 36074 ft 429 kts 330°
2026-05-07 07:44 53.58438 4.43071 36079 ft 429 kts 330°
2026-05-07 07:44 53.63624 4.38119 36080 ft 428 kts 331°
2026-05-07 07:45 53.68802 4.33159 36088 ft 428 kts 330°
2026-05-07 07:45 53.73940 4.28224 36086 ft 428 kts 330°
2026-05-07 07:46 53.79116 4.23238 36084 ft 428 kts 330°
2026-05-07 07:46 53.84284 4.18246 36087 ft 428 kts 330°
2026-05-07 07:47 53.89453 4.13238 36084 ft 428 kts 330°
2026-05-07 07:47 53.94591 4.08246 36085 ft 429 kts 330°
2026-05-07 07:48 53.99764 4.03206 36087 ft 429 kts 330°
2026-05-07 07:48 54.04940 3.98148 36086 ft 429 kts 330°
2026-05-07 07:49 54.10117 3.93075 36087 ft 429 kts 330°
2026-05-07 07:49 54.15260 3.88019 36094 ft 430 kts 330°
2026-05-07 07:50 54.20439 3.82914 36089 ft 430 kts 330°
2026-05-07 07:50 54.25613 3.77799 36095 ft 430 kts 330°
2026-05-07 07:51 54.30789 3.72667 36093 ft 430 kts 330°
2026-05-07 07:51 54.35957 3.67527 36095 ft 430 kts 330°
2026-05-07 07:52 54.41088 3.62409 36095 ft 429 kts 330°
2026-05-07 07:52 54.46248 3.57248 36098 ft 429 kts 330°
2026-05-07 07:53 54.51404 3.52076 36100 ft 429 kts 330°
2026-05-07 07:53 54.56558 3.46889 36102 ft 429 kts 329°
2026-05-07 07:54 54.61671 3.41729 36100 ft 429 kts 329°
2026-05-07 07:54 54.66819 3.36519 36102 ft 429 kts 329°
2026-05-07 07:55 54.71960 3.31299 36103 ft 429 kts 329°
2026-05-07 07:55 54.77103 3.26063 36105 ft 429 kts 329°
2026-05-07 07:56 54.82244 3.20812 36105 ft 429 kts 329°
2026-05-07 07:56 54.87342 3.15591 36104 ft 429 kts 329°
2026-05-07 07:57 54.92476 3.10316 36103 ft 428 kts 329°
2026-05-07 07:57 54.97602 3.05034 36104 ft 428 kts 328°
2026-05-07 07:58 55.02727 2.99738 36105 ft 428 kts 328°
2026-05-07 07:58 55.07811 2.94468 36103 ft 428 kts 328°
2026-05-07 07:59 55.12926 2.89149 36106 ft 428 kts 328°
2026-05-07 07:59 55.18036 2.83820 36103 ft 427 kts 328°
2026-05-07 08:00 55.23139 2.78482 36104 ft 427 kts 328°
2026-05-07 08:00 55.28238 2.73132 36105 ft 427 kts 328°
2026-05-07 08:01 55.33296 2.67809 36103 ft 427 kts 328°
2026-05-07 08:01 55.38380 2.62443 36106 ft 426 kts 328°
2026-05-07 08:02 55.43461 2.57063 36104 ft 426 kts 328°
2026-05-07 08:02 55.48534 2.51676 36109 ft 425 kts 328°
2026-05-07 08:03 55.53566 2.46316 36100 ft 425 kts 327°
2026-05-07 08:03 55.58619 2.40917 36104 ft 424 kts 327°
2026-05-07 08:04 55.63664 2.35511 36106 ft 424 kts 327°
2026-05-07 08:04 55.68701 2.30096 36098 ft 423 kts 327°
2026-05-07 08:05 55.73694 2.24712 36103 ft 423 kts 327°
2026-05-07 08:05 55.78716 2.19281 36101 ft 422 kts 327°
2026-05-07 08:06 55.83725 2.13847 36098 ft 422 kts 327°
2026-05-07 08:06 55.88728 2.08403 36099 ft 421 kts 327°
2026-05-07 08:07 55.93690 2.02987 36104 ft 421 kts 327°
2026-05-07 08:07 55.98677 1.97528 36099 ft 420 kts 327°
2026-05-07 08:08 56.03657 1.92059 36097 ft 420 kts 326°
2026-05-07 08:08 56.08626 1.86585 36099 ft 419 kts 326°
2026-05-07 08:09 56.13589 1.81102 36097 ft 419 kts 326°
2026-05-07 08:09 56.18506 1.75652 36097 ft 418 kts 326°
2026-05-07 08:10 56.23453 1.70152 36092 ft 418 kts 326°
2026-05-07 08:10 56.28390 1.64647 36093 ft 417 kts 326°
2026-05-07 08:11 56.33323 1.59129 36092 ft 417 kts 326°
2026-05-07 08:11 56.38217 1.53638 36095 ft 417 kts 326°
2026-05-07 08:12 56.43141 1.48096 36093 ft 417 kts 325°
2026-05-07 08:12 56.48061 1.42542 36090 ft 417 kts 325°
2026-05-07 08:13 56.52978 1.36973 36092 ft 417 kts 325°
2026-05-07 08:13 56.57889 1.31395 36089 ft 417 kts 325°
2026-05-07 08:14 56.62760 1.25844 36093 ft 416 kts 325°
2026-05-07 08:14 56.67665 1.20237 36094 ft 416 kts 324°
2026-05-07 08:15 56.72568 1.14616 36090 ft 416 kts 324°
2026-05-07 08:15 56.77464 1.08985 36092 ft 416 kts 324°
2026-05-07 08:16 56.82327 1.03374 36078 ft 416 kts 324°
2026-05-07 08:16 56.87217 0.97715 36087 ft 416 kts 324°
2026-05-07 08:17 56.92103 0.92042 36084 ft 416 kts 324°
2026-05-07 08:17 56.96990 0.86350 36080 ft 416 kts 324°
2026-05-07 08:18 57.01839 0.80685 36080 ft 416 kts 324°
2026-05-07 08:18 57.06717 0.74968 36073 ft 416 kts 324°
2026-05-07 08:19 57.11591 0.69238 36071 ft 416 kts 323°
2026-05-07 08:19 57.16457 0.63498 36075 ft 415 kts 323°
2026-05-07 08:20 57.21286 0.57784 36067 ft 415 kts 323°
2026-05-07 08:20 57.26138 0.52025 36064 ft 415 kts 323°
2026-05-07 08:21 57.30984 0.46255 36061 ft 414 kts 323°
2026-05-07 08:21 57.35825 0.40472 36059 ft 414 kts 323°
2026-05-07 08:22 57.40658 0.34680 36058 ft 413 kts 323°
2026-05-07 08:22 57.45452 0.28918 36056 ft 413 kts 323°
2026-05-07 08:23 57.50271 0.23106 36055 ft 413 kts 323°
2026-05-07 08:23 57.55085 0.17282 36055 ft 413 kts 322°
2026-05-07 08:24 57.59897 0.11441 36054 ft 413 kts 322°
2026-05-07 08:24 57.64671 0.05628 36049 ft 413 kts 322°
2026-05-07 08:25 57.69475 -0.00239 36046 ft 413 kts 322°
2026-05-07 08:25 57.74277 -0.06125 36047 ft 412 kts 322°
2026-05-07 08:26 57.81473 -0.14978 36037 ft 412 kts 322°
2026-05-07 08:26 57.86235 -0.20861 36030 ft 412 kts 322°
2026-05-07 08:27 57.91022 -0.26794 36035 ft 412 kts 322°
2026-05-07 08:27 57.95808 -0.32744 36033 ft 412 kts 322°
2026-05-07 08:28 58.00590 -0.38709 36027 ft 412 kts 321°
2026-05-07 08:28 58.05337 -0.44651 36033 ft 412 kts 321°
2026-05-07 08:29 58.10112 -0.50645 36022 ft 412 kts 321°
2026-05-07 08:29 58.14883 -0.56656 36025 ft 412 kts 321°
2026-05-07 08:30 58.19653 -0.62684 36022 ft 412 kts 321°
2026-05-07 08:30 58.23614 -0.67705 36019 ft 412 kts 321°
2026-05-07 08:31 58.29152 -0.74748 36013 ft 412 kts 321°
2026-05-07 08:31 58.33914 -0.80826 36011 ft 412 kts 321°
2026-05-07 08:32 58.38673 -0.86920 36009 ft 412 kts 321°
2026-05-07 08:32 58.43429 -0.93030 36007 ft 412 kts 321°
2026-05-07 08:33 58.48147 -0.99111 36001 ft 412 kts 320°
2026-05-07 08:33 58.52893 -1.05250 35999 ft 412 kts 320°
2026-05-07 08:34 58.56836 -1.10365 35995 ft 412 kts 320°
2026-05-07 08:34 58.61573 -1.16529 35996 ft 411 kts 320°
2026-05-07 08:35 58.66303 -1.22705 35987 ft 411 kts 320°
2026-05-07 08:35 58.71798 -1.29904 35984 ft 411 kts 320°
2026-05-07 08:36 58.75721 -1.35062 35981 ft 411 kts 320°
2026-05-07 08:36 58.80441 -1.41288 35977 ft 411 kts 320°
2026-05-07 08:37 58.85162 -1.47534 35977 ft 412 kts 320°
2026-05-07 08:37 58.89940 -1.53708 35963 ft 415 kts 323°
2026-05-07 08:38 58.94968 -1.59266 35968 ft 416 kts 324°
2026-05-07 08:38 58.99999 -1.64661 35962 ft 416 kts 324°
2026-05-07 08:39 59.05045 -1.70136 35960 ft 415 kts 324°
2026-05-07 08:39 59.10070 -1.75654 35959 ft 414 kts 324°
2026-05-07 08:40 59.15083 -1.81196 35957 ft 414 kts 324°
2026-05-07 08:40 59.20054 -1.86716 35958 ft 414 kts 324°
2026-05-07 08:41 59.25055 -1.92287 35949 ft 414 kts 323°
2026-05-07 08:41 59.30052 -1.97872 35956 ft 414 kts 323°
2026-05-07 08:42 59.35048 -2.03476 35943 ft 414 kts 323°
2026-05-07 08:42 59.40013 -2.09062 35943 ft 414 kts 323°
2026-05-07 08:43 59.45010 -2.14705 35939 ft 415 kts 323°
2026-05-07 08:43 59.50009 -2.20370 35936 ft 415 kts 323°
2026-05-07 08:44 59.55018 -2.26065 35940 ft 418 kts 323°
2026-05-07 08:44 59.60112 -2.31888 35940 ft 428 kts 323°
2026-05-07 08:45 59.65259 -2.37783 35931 ft 431 kts 323°
2026-05-07 08:45 59.70457 -2.43748 35925 ft 432 kts 323°
2026-05-07 08:46 59.75650 -2.49732 35915 ft 432 kts 323°
2026-05-07 08:46 59.80838 -2.55735 35922 ft 431 kts 323°
2026-05-07 08:47 59.85980 -2.61709 35919 ft 430 kts 323°
2026-05-07 08:47 59.91143 -2.67729 35908 ft 430 kts 323°
2026-05-07 08:48 59.96297 -2.73760 35909 ft 429 kts 323°
2026-05-07 08:48 60.01442 -2.79802 35908 ft 429 kts 322°
2026-05-07 08:49 60.06548 -2.85820 35905 ft 429 kts 322°
2026-05-07 08:49 60.11683 -2.91895 35905 ft 429 kts 322°
2026-05-07 08:50 60.16818 -2.97993 35898 ft 429 kts 322°
2026-05-07 08:50 60.21954 -3.04115 35907 ft 430 kts 322°
2026-05-07 08:51 60.27107 -3.10279 35905 ft 432 kts 322°
2026-05-07 08:51 60.32247 -3.16452 35894 ft 434 kts 322°
2026-05-07 08:52 60.37431 -3.22698 35893 ft 434 kts 322°
2026-05-07 08:52 60.42624 -3.28980 35894 ft 435 kts 322°
2026-05-07 08:53 60.47825 -3.35293 35894 ft 436 kts 322°
2026-05-07 08:53 60.52995 -3.41594 35886 ft 436 kts 322°
2026-05-07 08:54 60.58196 -3.47957 35884 ft 436 kts 322°
2026-05-07 08:54 60.63398 -3.54345 35880 ft 437 kts 322°
2026-05-07 08:55 60.68598 -3.60756 35877 ft 437 kts 322°
2026-05-07 08:55 60.73801 -3.67195 35881 ft 437 kts 322°
2026-05-07 08:56 60.78965 -3.73610 35878 ft 437 kts 322°
2026-05-07 08:56 60.84166 -3.80095 35872 ft 437 kts 322°
2026-05-07 08:57 60.89360 -3.86598 35876 ft 437 kts 322°
2026-05-07 08:57 60.94554 -3.93124 35870 ft 438 kts 322°
2026-05-07 08:58 60.99410 -4.00321 35869 ft 428 kts 310°
2026-05-07 08:58 61.03019 -4.09824 35879 ft 418 kts 296°
2026-05-07 08:59 61.06010 -4.20099 35865 ft 418 kts 296°
2026-05-07 08:59 61.08989 -4.30437 35859 ft 419 kts 296°
2026-05-07 09:00 61.11987 -4.40791 35855 ft 420 kts 296°
2026-05-07 09:00 61.14979 -4.51107 35860 ft 422 kts 296°
2026-05-07 09:01 61.18006 -4.61572 35843 ft 425 kts 296°
2026-05-07 09:01 61.21042 -4.72114 35839 ft 426 kts 296°
2026-05-07 09:02 61.24072 -4.82679 35839 ft 426 kts 296°
2026-05-07 09:02 61.27073 -4.93194 35832 ft 425 kts 296°
2026-05-07 09:03 61.30077 -5.03771 35837 ft 424 kts 296°
2026-05-07 09:03 61.33069 -5.14358 35842 ft 424 kts 296°
2026-05-07 09:04 61.36052 -5.24960 35827 ft 424 kts 296°
2026-05-07 09:04 61.39025 -5.35577 35825 ft 424 kts 295°
2026-05-07 09:05 61.41971 -5.46145 35823 ft 424 kts 295°
2026-05-07 09:05 61.44927 -5.56803 35819 ft 424 kts 295°
2026-05-07 09:06 61.47874 -5.67476 35823 ft 424 kts 295°
2026-05-07 09:06 61.50819 -5.78194 35829 ft 426 kts 295°
2026-05-07 09:07 61.53748 -5.88905 35822 ft 427 kts 295°
2026-05-07 09:07 61.56695 -5.99729 35813 ft 428 kts 295°
2026-05-07 09:08 61.59636 -6.10584 35814 ft 428 kts 295°
2026-05-07 09:08 61.62569 -6.21461 35817 ft 428 kts 295°
2026-05-07 09:09 61.65473 -6.32287 35816 ft 428 kts 295°
2026-05-07 09:09 61.68390 -6.43212 35821 ft 428 kts 295°
2026-05-07 09:10 61.71302 -6.54170 35822 ft 429 kts 295°
2026-05-07 09:10 61.74209 -6.65168 35821 ft 430 kts 295°
2026-05-07 09:11 61.77094 -6.76133 35824 ft 430 kts 295°
2026-05-07 09:11 61.79994 -6.87211 35834 ft 431 kts 295°
2026-05-07 09:12 61.82886 -6.98311 35836 ft 431 kts 295°
2026-05-07 09:12 61.85767 -7.09423 35849 ft 431 kts 295°
2026-05-07 09:13 61.88639 -7.20560 35854 ft 431 kts 295°
2026-05-07 09:13 61.91485 -7.31646 35848 ft 430 kts 295°
2026-05-07 09:14 61.94334 -7.42805 35850 ft 430 kts 295°
2026-05-07 09:14 61.97177 -7.53994 35845 ft 430 kts 295°
2026-05-07 09:15 62.00009 -7.65198 35845 ft 430 kts 294°
2026-05-07 09:15 62.02833 -7.76425 35847 ft 430 kts 295°
2026-05-07 09:16 62.05634 -7.87621 35840 ft 431 kts 294°
2026-05-07 09:16 62.08449 -7.98930 35822 ft 432 kts 294°
2026-05-07 09:17 62.11260 -8.10277 35840 ft 432 kts 294°
2026-05-07 09:17 62.14059 -8.21639 35833 ft 432 kts 294°
2026-05-07 09:18 62.16850 -8.33019 35840 ft 432 kts 294°
2026-05-07 09:18 62.19616 -8.44361 35839 ft 432 kts 294°
2026-05-07 09:19 62.22388 -8.55782 35847 ft 432 kts 293°
2026-05-07 09:19 62.25149 -8.67225 35850 ft 432 kts 294°
2026-05-07 09:20 62.27881 -8.78604 35850 ft 432 kts 293°
2026-05-07 09:20 62.30622 -8.90071 35856 ft 431 kts 294°
2026-05-07 09:21 62.33347 -9.01551 35860 ft 431 kts 293°
2026-05-07 09:21 62.36078 -9.13124 35871 ft 436 kts 293°
2026-05-07 09:22 62.38840 -9.24885 35874 ft 443 kts 293°
2026-05-07 09:22 62.41602 -9.36703 35866 ft 443 kts 293°
2026-05-07 09:23 62.44342 -9.48466 35866 ft 435 kts 293°
2026-05-07 09:23 62.47026 -9.60064 35868 ft 427 kts 292°
2026-05-07 09:24 62.49651 -9.71475 35893 ft 425 kts 292°
2026-05-07 09:24 62.52296 -9.83049 35899 ft 433 kts 292°
2026-05-07 09:25 62.54950 -9.94746 35905 ft 439 kts 292°
2026-05-07 09:25 62.57657 -10.06700 35909 ft 445 kts 292°
2026-05-07 09:26 62.60387 -10.18809 35901 ft 448 kts 293°
2026-05-07 09:26 62.63104 -10.30937 35898 ft 444 kts 293°
2026-05-07 09:27 62.65771 -10.42932 35919 ft 445 kts 292°
2026-05-07 09:28 62.69812 -10.61237 35918 ft 447 kts 293°
2026-05-07 09:28 62.72462 -10.73315 35916 ft 437 kts 292°
2026-05-07 09:29 62.75052 -10.85166 35920 ft 429 kts 293°
2026-05-07 09:29 62.77593 -10.96905 35944 ft 433 kts 292°
2026-05-07 09:30 62.80165 -11.08841 35942 ft 434 kts 293°
2026-05-07 09:30 62.82728 -11.20804 35945 ft 435 kts 292°
2026-05-07 09:31 62.85273 -11.32730 35936 ft 430 kts 292°
2026-05-07 09:31 62.87790 -11.44623 35960 ft 437 kts 292°
2026-05-07 09:32 62.90358 -11.56810 35970 ft 444 kts 293°
2026-05-07 09:32 62.92959 -11.69223 35975 ft 451 kts 293°
2026-05-07 09:33 62.95572 -11.81756 35964 ft 450 kts 293°
2026-05-07 09:33 62.98144 -11.94175 35974 ft 448 kts 293°
2026-05-07 09:34 63.00703 -12.06616 35973 ft 445 kts 293°
2026-05-07 09:34 63.03229 -12.18961 35974 ft 438 kts 292°
2026-05-07 09:35 63.05711 -12.31164 35985 ft 435 kts 292°
2026-05-07 09:35 63.08160 -12.43282 36009 ft 437 kts 292°
2026-05-07 09:36 63.10632 -12.55586 36010 ft 439 kts 292°
2026-05-07 09:36 63.13110 -12.67992 36023 ft 443 kts 292°
2026-05-07 09:37 63.15596 -12.80522 36019 ft 446 kts 292°
2026-05-07 09:37 63.18069 -12.93056 36021 ft 448 kts 292°
2026-05-07 09:38 63.20557 -13.05748 36031 ft 451 kts 292°
2026-05-07 09:38 63.23049 -13.18537 36022 ft 450 kts 292°
2026-05-07 09:39 63.25507 -13.31233 36026 ft 445 kts 292°
2026-05-07 09:39 63.27905 -13.43699 36043 ft 440 kts 292°
2026-05-07 09:40 63.30294 -13.56191 36044 ft 438 kts 292°
2026-05-07 09:40 63.32664 -13.68664 36050 ft 437 kts 292°
2026-05-07 09:41 63.35015 -13.81117 36062 ft 437 kts 292°
2026-05-07 09:41 63.37359 -13.93609 36065 ft 438 kts 292°
2026-05-07 09:42 63.39692 -14.06108 36077 ft 442 kts 292°
2026-05-07 09:42 63.41852 -14.19033 36078 ft 447 kts 287°
2026-05-07 09:43 63.43694 -14.32332 36088 ft 450 kts 287°
2026-05-07 09:43 63.45509 -14.45742 36077 ft 451 kts 287°
2026-05-07 09:44 63.47322 -14.59013 36082 ft 448 kts 287°
2026-05-07 09:44 63.49149 -14.72348 36094 ft 448 kts 287°
2026-05-07 09:45 63.50655 -14.83393 36091 ft 445 kts 287°
2026-05-07 09:46 63.54475 -15.11748 36103 ft 436 kts 287°
2026-05-07 09:46 63.56212 -15.24815 36115 ft 438 kts 287°
2026-05-07 09:47 63.57941 -15.37924 36109 ft 438 kts 287°
2026-05-07 09:47 63.59654 -15.51019 36118 ft 437 kts 286°
2026-05-07 09:48 63.61345 -15.64048 36117 ft 438 kts 286°
2026-05-07 09:48 63.63043 -15.77245 36124 ft 440 kts 286°
2026-05-07 09:49 63.64742 -15.90556 36134 ft 446 kts 286°
2026-05-07 09:49 63.66451 -16.04066 36137 ft 452 kts 286°
2026-05-07 09:50 63.68152 -16.17627 36120 ft 451 kts 286°
2026-05-07 09:50 63.69832 -16.31139 36126 ft 445 kts 286°
2026-05-07 09:51 63.71480 -16.44509 36124 ft 439 kts 286°
2026-05-07 09:51 63.73096 -16.57733 36125 ft 436 kts 287°
2026-05-07 09:52 63.74694 -16.70921 36138 ft 436 kts 286°
2026-05-07 09:52 63.76280 -16.84123 36151 ft 442 kts 286°
2026-05-07 09:53 63.77890 -16.97643 36146 ft 449 kts 286°
2026-05-07 09:53 63.79506 -17.11344 36144 ft 451 kts 286°
2026-05-07 09:53 63.80300 -17.18130 36129 ft 440 kts 286°
2026-05-07 09:54 63.81071 -17.24743 36134 ft 432 kts 286°
2026-05-07 09:54 63.82587 -17.37818 35899 ft 427 kts 285°
2026-05-07 09:54 63.83332 -17.44278 35589 ft 420 kts 285°
2026-05-07 09:55 63.84054 -17.50571 35202 ft 417 kts 285°
2026-05-07 09:55 63.84763 -17.56915 34815 ft 414 kts 283°
2026-05-07 09:55 63.85184 -17.63346 34420 ft 412 kts 277°
2026-05-07 09:55 63.85472 -17.69787 33980 ft 410 kts 277°
2026-05-07 09:56 63.85732 -17.76208 33529 ft 407 kts 277°
2026-05-07 09:56 63.85983 -17.82554 33109 ft 404 kts 277°
2026-05-07 09:56 63.86238 -17.88899 32703 ft 400 kts 277°
2026-05-07 09:56 63.86492 -17.95147 32321 ft 397 kts 277°
2026-05-07 09:57 63.86745 -18.01276 31935 ft 394 kts 277°
2026-05-07 09:57 63.86999 -18.07438 31562 ft 391 kts 277°
2026-05-07 09:57 63.87251 -18.13542 31191 ft 388 kts 278°
2026-05-07 09:57 63.87499 -18.19613 30821 ft 385 kts 278°
2026-05-07 09:58 63.87744 -18.25638 30460 ft 383 kts 278°
2026-05-07 09:58 63.87985 -18.31633 30060 ft 380 kts 278°
2026-05-07 09:58 63.88222 -18.37594 29629 ft 378 kts 278°
2026-05-07 09:58 63.88454 -18.43491 29255 ft 373 kts 278°
2026-05-07 09:59 63.88678 -18.49249 28883 ft 369 kts 278°
2026-05-07 09:59 63.88900 -18.55019 28507 ft 365 kts 278°
2026-05-07 09:59 63.89118 -18.60746 28130 ft 362 kts 278°
2026-05-07 09:59 63.89332 -18.66417 27763 ft 359 kts 278°
2026-05-07 10:00 63.89542 -18.72044 27391 ft 356 kts 278°
2026-05-07 10:00 63.89748 -18.77626 27017 ft 353 kts 278°
2026-05-07 10:00 63.89950 -18.83161 26660 ft 351 kts 278°
2026-05-07 10:00 63.90150 -18.88664 26293 ft 349 kts 278°
2026-05-07 10:01 63.90343 -18.94061 25942 ft 346 kts 278°
2026-05-07 10:01 63.90534 -18.99488 25586 ft 344 kts 278°
2026-05-07 10:01 63.90722 -19.04877 25242 ft 342 kts 278°
2026-05-07 10:01 63.90909 -19.10244 24897 ft 340 kts 278°
2026-05-07 10:02 63.91093 -19.15590 24536 ft 339 kts 278°
2026-05-07 10:02 63.91274 -19.20909 24196 ft 337 kts 278°
2026-05-07 10:02 63.91451 -19.26199 23841 ft 335 kts 278°
2026-05-07 10:02 63.91625 -19.31450 23438 ft 332 kts 278°
2026-05-07 10:03 63.91796 -19.36663 23089 ft 330 kts 278°
2026-05-07 10:03 63.91965 -19.41851 22735 ft 329 kts 278°
2026-05-07 10:03 63.92129 -19.46957 22403 ft 328 kts 278°
2026-05-07 10:03 63.92292 -19.52115 22066 ft 326 kts 278°
2026-05-07 10:04 63.92453 -19.57243 21698 ft 325 kts 278°
2026-05-07 10:04 63.92609 -19.62359 21360 ft 322 kts 278°
2026-05-07 10:04 63.92764 -19.67412 21020 ft 319 kts 278°
2026-05-07 10:04 63.92916 -19.72412 20697 ft 316 kts 278°
2026-05-07 10:05 63.93066 -19.77379 20340 ft 314 kts 278°
2026-05-07 10:05 63.93212 -19.82310 20029 ft 312 kts 278°
2026-05-07 10:05 63.93354 -19.87143 19706 ft 309 kts 278°
2026-05-07 10:05 63.93495 -19.92010 19384 ft 307 kts 278°
2026-05-07 10:06 63.93634 -19.96840 19062 ft 306 kts 278°
2026-05-07 10:06 63.93770 -20.01649 18745 ft 304 kts 278°
2026-05-07 10:06 63.93904 -20.06439 18416 ft 302 kts 278°
2026-05-07 10:06 63.94035 -20.11196 18061 ft 301 kts 278°
2026-05-07 10:07 63.94165 -20.15926 17738 ft 298 kts 278°
2026-05-07 10:07 63.94293 -20.20619 17419 ft 296 kts 278°
2026-05-07 10:07 63.94418 -20.25277 17115 ft 294 kts 278°
2026-05-07 10:07 63.94539 -20.29908 16790 ft 292 kts 278°
2026-05-07 10:08 63.94649 -20.34442 16495 ft 291 kts 275°
2026-05-07 10:08 63.94506 -20.39049 16181 ft 293 kts 266°
2026-05-07 10:08 63.94175 -20.43615 15883 ft 292 kts 263°
2026-05-07 10:08 63.93807 -20.48158 15574 ft 291 kts 263°
2026-05-07 10:09 63.93441 -20.52672 15272 ft 290 kts 264°
2026-05-07 10:09 63.93085 -20.57178 14973 ft 289 kts 264°
2026-05-07 10:09 63.92738 -20.61678 14669 ft 289 kts 264°
2026-05-07 10:09 63.92396 -20.66172 14366 ft 288 kts 264°
2026-05-07 10:10 63.92062 -20.70598 14067 ft 287 kts 264°
2026-05-07 10:10 63.91727 -20.75054 13754 ft 286 kts 264°
2026-05-07 10:10 63.91394 -20.79503 13443 ft 285 kts 264°
2026-05-07 10:10 63.91061 -20.83925 13140 ft 283 kts 264°
2026-05-07 10:11 63.90730 -20.88314 12834 ft 281 kts 264°
2026-05-07 10:11 63.90399 -20.92670 12557 ft 279 kts 264°
2026-05-07 10:11 63.90071 -20.97007 12246 ft 278 kts 264°
2026-05-07 10:11 63.89746 -21.01314 11956 ft 276 kts 264°
2026-05-07 10:12 63.89423 -21.05539 11664 ft 275 kts 263°
2026-05-07 10:12 63.89095 -21.09798 11374 ft 274 kts 264°
2026-05-07 10:12 63.88767 -21.14047 11096 ft 272 kts 263°
2026-05-07 10:12 63.88441 -21.18260 10843 ft 270 kts 263°
2026-05-07 10:13 63.88113 -21.22465 10569 ft 272 kts 263°
2026-05-07 10:13 63.87781 -21.26728 10323 ft 276 kts 263°
2026-05-07 10:13 63.87448 -21.30946 10202 ft 268 kts 263°
2026-05-07 10:13 63.87120 -21.35107 9906 ft 267 kts 263°
2026-05-07 10:14 63.86794 -21.39245 9621 ft 266 kts 263°
2026-05-07 10:14 63.86468 -21.43354 9345 ft 264 kts 263°
2026-05-07 10:14 63.86146 -21.47388 9070 ft 263 kts 263°
2026-05-07 10:14 63.85821 -21.51459 8801 ft 262 kts 263°
2026-05-07 10:15 63.85497 -21.55504 8525 ft 260 kts 263°
2026-05-07 10:15 63.85171 -21.59533 8253 ft 259 kts 263°
2026-05-07 10:15 63.84848 -21.63547 7931 ft 261 kts 263°
2026-05-07 10:15 63.84516 -21.67648 7526 ft 266 kts 263°
2026-05-07 10:16 63.84180 -21.71760 7213 ft 265 kts 262°
2026-05-07 10:16 63.83843 -21.75863 6939 ft 264 kts 263°
2026-05-07 10:16 63.83507 -21.79953 6664 ft 263 kts 262°
2026-05-07 10:16 63.83175 -21.83963 6372 ft 262 kts 262°
2026-05-07 10:17 63.82839 -21.88021 6083 ft 262 kts 262°
2026-05-07 10:17 63.82504 -21.92067 5810 ft 261 kts 262°
2026-05-07 10:17 63.82169 -21.96107 5538 ft 261 kts 262°
2026-05-07 10:17 63.81831 -22.00143 5270 ft 260 kts 262°
2026-05-07 10:18 63.81493 -22.04169 4992 ft 260 kts 262°
2026-05-07 10:18 63.81154 -22.08186 4732 ft 260 kts 262°
2026-05-07 10:18 63.80747 -22.12107 4466 ft 260 kts 255°
2026-05-07 10:18 63.80162 -22.15974 4200 ft 260 kts 252°
2026-05-07 10:19 63.79555 -22.19785 4072 ft 254 kts 252°
2026-05-07 10:19 63.78977 -22.23489 3940 ft 244 kts 253°
2026-05-07 10:19 63.78431 -22.27031 3837 ft 233 kts 253°
2026-05-07 10:19 63.77910 -22.30436 3748 ft 226 kts 253°
2026-05-07 10:20 63.77404 -22.33751 3684 ft 218 kts 253°
2026-05-07 10:20 63.76942 -22.36953 3493 ft 211 kts 262°
2026-05-07 10:20 63.77082 -22.40046 3302 ft 195 kts 295°
2026-05-07 10:20 63.77548 -22.42867 3081 ft 190 kts 295°
2026-05-07 10:21 63.77996 -22.45641 2859 ft 186 kts 296°
2026-05-07 10:21 63.78433 -22.48347 2644 ft 181 kts 295°
2026-05-07 10:21 63.78857 -22.50984 2435 ft 176 kts 297°
2026-05-07 10:21 63.79269 -22.53545 2255 ft 171 kts 297°
2026-05-07 10:22 63.79674 -22.56058 2065 ft 168 kts 297°
2026-05-07 10:22 63.80075 -22.58458 1881 ft 157 kts 305°
2026-05-07 10:22 63.80791 -22.60008 1852 ft 137 kts 339°
2026-05-07 10:22 63.81674 -22.60381 1810 ft 128 kts
2026-05-07 10:23 63.82553 -22.60452 1790 ft 127 kts
2026-05-07 10:23 63.83431 -22.60514 1777 ft 126 kts
2026-05-07 10:23 63.84304 -22.60539 1794 ft 125 kts
2026-05-07 10:23 63.85183 -22.60548 1801 ft 127 kts
2026-05-07 10:24 63.86069 -22.60551 1780 ft 128 kts
2026-05-07 10:24 63.86957 -22.60552 1809 ft 127 kts
2026-05-07 10:24 63.87842 -22.60551 1792 ft 127 kts
2026-05-07 10:24 63.88740 -22.60550 1672 ft 132 kts
2026-05-07 10:25 63.89649 -22.60549 1470 ft 129 kts
2026-05-07 10:25 63.90527 -22.60591 1295 ft 125 kts
2026-05-07 10:25 63.91372 -22.60632 1124 ft 119 kts
2026-05-07 10:25 63.92186 -22.60609 933 ft 117 kts
2026-05-07 10:26 63.93020 -22.60567 797 ft 120 kts
2026-05-07 10:26 63.93873 -22.60580 636 ft 126 kts
2026-05-07 10:26 63.94748 -22.60566 510 ft 126 kts
2026-05-07 10:26 63.95617 -22.60552 350 ft 125 kts
2026-05-07 10:27 63.96486 -22.60556 190 ft 123 kts
2026-05-07 10:27 63.97279 -22.60542 167 ft 97 kts 359°
2026-05-07 10:27 63.97800 -22.60542 171 ft 55 kts 359°
2026-05-07 10:27 63.98026 -22.60554 170 ft 14 kts 346°
2026-05-07 10:28 63.98111 -22.60621 171 ft 13 kts 338°
2026-05-07 10:28 63.98197 -22.60716 168 ft 11 kts 328°
2026-05-07 10:28 63.98272 -22.60818 165 ft 13 kts 330°
2026-05-07 10:28 63.98330 -22.60894 165 ft 7 kts 330°
2026-05-07 10:29 63.98374 -22.60936 165 ft 7 kts 350°
2026-05-07 10:29 63.98428 -22.60939 165 ft 9 kts 360°
2026-05-07 10:29 63.98496 -22.60940 165 ft 11 kts 360°
2026-05-07 10:30 63.98705 -22.60938 162 ft 18 kts 360°
2026-05-07 10:30 63.98839 -22.60939 163 ft 19 kts
2026-05-07 10:30 63.98952 -22.60939 166 ft 13 kts 360°
2026-05-07 10:30 63.99030 -22.60938 165 ft 2 kts 360°
2026-05-07 10:33 63.99036 -22.60938 165 ft 3 kts 359°
2026-05-07 10:34 63.99073 -22.60938 164 ft 8 kts
2026-05-07 10:34 63.99132 -22.60939 161 ft 9 kts 354°
2026-05-07 10:34 63.99173 -22.61034 158 ft 11 kts 279°
2026-05-07 10:34 63.99173 -22.61197 154 ft 12 kts 270°
2026-05-07 10:35 63.99174 -22.61412 150 ft 13 kts 270°
2026-05-07 10:35 63.99173 -22.61585 146 ft 11 kts 269°
2026-05-07 10:35 63.99173 -22.61765 142 ft 10 kts 270°
2026-05-07 10:35 63.99173 -22.61919 139 ft 8 kts 270°
2026-05-07 10:36 63.99207 -22.61981 139 ft 4 kts 352°
2026-05-07 10:36 63.99232 -22.62004 139 ft 4 kts 306°
2026-05-07 10:36 63.99238 -22.62070 139 ft 4 kts 275°
2026-05-07 10:36 63.99254 -22.62131 139 ft 5 kts 313°
2026-05-07 10:37 63.99273 -22.62175 139 ft 3 kts 315°
2026-05-07 10:37 63.99280 -22.62191 139 ft 0 kts 315°